Driggs, ID

10:08 AM MDT on July 26, 2017 (GMT -0600)
Driggs

Weather History for KDIJ - January, 2013

Change the Weather History Date:

Tuesday, January 15, 2013

  Actual Average (KJAC) Record (KJAC)
Temperature  
Mean Temperature 4 °F -  
Max Temperature 9 °F 29 °F 45 °F (1973)
Min Temperature -2 °F 7 °F -28 °F (1964)
Degree Days  
Heating Degree Days 62    
Moisture  
Dew Point -1 °F    
Average Humidity 79    
Maximum Humidity 87    
Minimum Humidity 70    
Precipitation  
Precipitation 0.00 in - - ()
Sea Level Pressure  
Sea Level Pressure 30.49 in    
Wind  
Wind Speed 2 mph (West)    
Max Wind Speed 6 mph    
Max Gust Speed -    
Visibility 10 miles    
Events Snow    
Averages and records for this station are not official NWS values.
T = Trace of Precipitation, MM = Missing Value Source: NWS Daily Summary

Daily Weather History Graph

Daily Weather History Graph

Search for Another Location

Airport or City:

Trip Planner

Search our weather history database for the weather conditions in past years. The results will help you decide how hot, cold, wet, or windy it might be!

Date:

Astronomy

Jan. 15, 2013 Rise Set
Actual Time 7:54 AM MST 5:13 PM MST
Civil Twilight 7:23 AM MST 5:45 PM MST
Nautical Twilight 6:47 AM MST 6:20 PM MST
Astronomical Twilight 6:13 AM MST 6:55 PM MST
Moon 9:52 AM MST (1/15) 10:18 PM MST (1/15)
Length of Visible Light 10h 22m
Length of Day
9h 18m
Waxing Crescent, 20% of the Moon is Illuminated
Jan 15
Waxing Crescent
Jan 18
First Quarter
Jan 26
Full
Feb 3
Last Quarter
Feb 10
New

Hourly Weather History & Observations

Time (MST) Temp. Windchill Dew Point Humidity Pressure Visibility Wind Dir Wind Speed Gust Speed Precip Events Conditions
12:10 AM -2.2 °F -10.4 °F -7.6 °F 78% 30.22 in 10.0 mi ESE 3.5 mph - 0.00 in   Overcast
12:56 AM -1.8 °F -9.9 °F -6.9 °F 79% 30.57 in 10.0 mi West 3.5 mph - 0.00 in   Overcast
2:56 AM 0.1 °F - -4.9 °F 79% 30.58 in 10.0 mi Calm Calm - 0.00 in Snow Light Snow
3:56 AM 0.1 °F - -4.9 °F 79% 30.59 in 10.0 mi Calm Calm - 0.00 in   Overcast
4:11 AM -0.4 °F - -5.8 °F 78% 30.29 in 10.0 mi Calm Calm - 0.00 in   Overcast
4:24 AM -0.4 °F - -5.8 °F 78% 30.28 in 10.0 mi Calm Calm - 0.00 in   Overcast
4:32 AM -0.4 °F - -5.8 °F 78% 30.29 in 10.0 mi Calm Calm - 0.00 in   Overcast
5:12 AM -0.4 °F - -5.8 °F 78% 30.29 in 10.0 mi Calm Calm - 0.00 in Snow Light Snow
5:39 AM -0.4 °F -8.3 °F -4.0 °F 85% 30.28 in 7.0 mi South 3.5 mph - 0.00 in Snow Light Snow
5:56 AM -0.9 °F -11.0 °F -4.9 °F 83% 30.60 in 10.0 mi SW 4.6 mph - 0.00 in   Overcast
6:04 AM -0.4 °F -8.3 °F -5.8 °F 78% 30.28 in 10.0 mi WSW 3.5 mph - N/A   Overcast
6:14 AM -0.4 °F - -5.8 °F 78% 30.31 in 10.0 mi Calm Calm - N/A   Overcast
6:44 AM -0.4 °F - -5.8 °F 78% 30.33 in 10.0 mi Calm Calm - N/A   Overcast
6:56 AM 1.0 °F - -4.9 °F 76% 30.66 in 10.0 mi Calm Calm - N/A   Overcast
7:39 AM -0.4 °F -8.3 °F -4.0 °F 85% 30.32 in 10.0 mi SSE 3.5 mph - 0.00 in   Overcast
7:56 AM 1.0 °F - -4.0 °F 79% 30.66 in 10.0 mi Calm Calm - 0.00 in   Overcast
8:56 AM 3.0 °F - -2.9 °F 76% 30.69 in 10.0 mi Calm Calm - N/A   Overcast
9:11 AM 1.4 °F - -4.0 °F 78% 30.36 in 10.0 mi Calm Calm - 0.00 in Snow Light Snow
9:39 AM 3.2 °F - -2.2 °F 78% 30.37 in 10.0 mi Calm Calm - 0.00 in Snow Light Snow
9:56 AM 3.0 °F - -1.8 °F 80% 30.68 in 10.0 mi Calm Calm - 0.00 in Snow Light Snow
10:56 AM 5.0 °F - -1.8 °F 73% 30.68 in 10.0 mi Calm Calm - 0.00 in   Overcast
11:11 AM 5.0 °F -5.6 °F -0.4 °F 78% 30.38 in 10.0 mi WSW 5.8 mph - N/A   Mostly Cloudy
11:21 AM 5.0 °F -4.1 °F -0.4 °F 78% 30.38 in 10.0 mi WSW 4.6 mph - N/A   Overcast
11:34 AM 5.0 °F -4.1 °F -2.2 °F 72% 30.38 in 10.0 mi WSW 4.6 mph - 0.00 in Snow Light Snow
11:47 AM 5.0 °F -2.1 °F -2.2 °F 72% 30.37 in 10.0 mi WSW 3.5 mph - 0.00 in Snow Light Snow
11:56 AM 5.0 °F - -1.8 °F 73% 30.66 in 10.0 mi Calm Calm - 0.00 in Snow Light Snow
12:12 PM 6.8 °F -0.1 °F -0.4 °F 72% 30.38 in 10.0 mi NNW 3.5 mph - 0.00 in Snow Light Snow
12:56 PM 8.1 °F - 0.1 °F 70% 30.64 in 10.0 mi Calm Calm - 0.00 in Snow Light Snow
1:56 PM 9.1 °F - 1.0 °F 70% 30.63 in 10.0 mi Calm Calm - 0.00 in Snow Light Snow
2:16 PM 8.6 °F - 1.4 °F 73% 30.39 in 10.0 mi Calm Calm - 0.00 in   Overcast
2:23 PM 6.8 °F - -0.4 °F 72% 30.39 in 10.0 mi Calm Calm - 0.00 in   Overcast
2:56 PM 6.1 °F -0.9 °F 0.1 °F 77% 30.68 in 10.0 mi WNW 3.5 mph - 0.00 in Snow Light Snow
3:41 PM 6.8 °F - 1.4 °F 79% 30.41 in 10.0 mi Calm Calm - 0.00 in   Overcast
4:47 PM 8.6 °F 2.0 °F 3.2 °F 79% 30.43 in 10.0 mi North 3.5 mph - 0.00 in Snow Light Snow
4:56 PM 8.1 °F - 3.0 °F 80% 30.69 in 10.0 mi Calm Calm - 0.00 in Snow Light Snow
5:04 PM 8.6 °F - 1.4 °F 73% 30.43 in 10.0 mi Calm Calm - 0.00 in   Overcast
5:21 PM 6.8 °F - 1.4 °F 79% 30.43 in 10.0 mi Calm Calm - 0.00 in   Overcast
5:23 PM 6.8 °F - 1.4 °F 79% 30.43 in 10.0 mi Calm Calm - 0.00 in   Overcast
5:56 PM 7.2 °F 0.3 °F 3.0 °F 83% 30.71 in 10.0 mi West 3.5 mph - 0.00 in Snow Light Snow
6:09 PM 6.8 °F -0.1 °F 3.2 °F 85% 30.44 in 10.0 mi West 3.5 mph - 0.00 in Snow Light Snow
6:22 PM 6.8 °F - 3.2 °F 85% 30.44 in 10.0 mi Calm Calm - 0.00 in   Overcast
6:56 PM 7.2 °F -1.5 °F 3.0 °F 83% 30.71 in 10.0 mi WNW 4.6 mph - 0.00 in   Overcast
7:10 PM 6.8 °F -0.1 °F 3.2 °F 85% 30.45 in 10.0 mi WNW 3.5 mph - N/A   Overcast
7:56 PM 6.1 °F -2.8 °F 3.0 °F 87% 30.72 in 10.0 mi WNW 4.6 mph - N/A   Overcast
8:03 PM 6.8 °F -0.1 °F 3.2 °F 85% 30.46 in 10.0 mi WNW 3.5 mph - N/A   Overcast
8:56 PM 7.2 °F - 3.0 °F 83% 30.71 in 10.0 mi Calm Calm - 0.00 in Snow Light Snow
9:56 PM 7.2 °F - 3.0 °F 83% 30.71 in 10.0 mi Calm Calm - 0.00 in   Overcast
10:28 PM 6.8 °F - 3.2 °F 85% 30.47 in 10.0 mi Calm Calm - N/A   Overcast
10:45 PM 6.8 °F - 3.2 °F 85% 30.47 in 10.0 mi Calm Calm - N/A   Overcast
10:56 PM 7.2 °F - 3.0 °F 83% 30.72 in 10.0 mi Calm Calm - N/A   Overcast
11:04 PM 6.8 °F - 3.2 °F 85% 30.47 in 10.0 mi Calm Calm - 0.00 in Snow Light Snow
11:56 PM 7.2 °F 0.3 °F 3.0 °F 83% 30.74 in 10.0 mi NE 3.5 mph - 0.00 in Snow Light Snow